sat.trackr.live / text

‹ back to catalog

UNKNOWN

NORAD 85238

UNKNOWN UNKNOWN UNKNOWN

§ Identity

Operator
Country
Launch date
Launch site
Launch vehicle
Mass (kg)
RCS (m²)

External: N2YO · Heavens-Above

§ Orbital elements

Epoch: 2026-09-18T13:02:25.032192Z

Period
103.72 min
Inclination
99.0723°
Eccentricity
0.0063489
Mean motion
13.88385341 rev/d
Perigee alt
887.9 km
Apogee alt
980.7 km
Semi-major
7,312.4 km
B*
5.5582e-5
RAAN
187.9723°
Arg perigee
163.3430°
Mean anomaly
11.6709°
Rev number
64,966

§ Raw data

UNKNOWN1 85238U          26261.54334528  .00000025  00000+0  55582-4 0  99922 85238  99.0723 187.9723 0063489 163.3430  11.6709 13.88385341649664

JSON: /api/v1/satellites/85238 · /tle

For live sub-satellite position, see the globe view (requires WebGL).

§ Visibility from observer

Set your observer location to see the next 7 days of passes ≥ 10°. The values pass through the URL so the page stays shareable.

No JS? Fill the form by hand. The geolocation button needs JavaScript.